View from above orbital plane
|
View from above satellite
|
Ground track
|
The orbit data is extracted from the following two-line orbital elements,
1 22109U 92058B 21059.41548745 .00000536 00000-0 24259-4 0 9993
2 22109 19.7835 327.2177 0036442 303.6077 56.0861 14.73641866509201
Epoch (UTC): | 28 February 2021 09:58:18 |
Eccentricity: | 0.0036442 |
inclination: | 19.7835° |
perigee height: | 624 km |
apogee height: | 675 km |
right ascension of ascending node: | 327.2177° |
argument of perigee: | 303.6077° |
revolutions per day: | 14.73641866 |
mean anomaly at epoch: | 56.0861° |
orbit number at epoch: | 50920 |
The dashed part of the orbit path shows where the satellite is in the earth's shadow,
|
|